Time,TemperatureF,DewpointF,PressureIn,WindDirection,WindDirectionDegrees,WindSpeedMPH,WindSpeedGustMPH,Humidity,HourlyPrecipIn,Conditions,Clouds,dailyrainin,SoftwareType,DateUTC
2013-04-07 00:06:00,40.3,38.0,29.59,WNW,284,11.0,28.0,90,0.00,,,0.23,weatherlink.com 1.10,2013-04-07 05:06:00,
2013-04-07 00:21:00,40.0,37.0,29.60,NW,304,14.0,22.0,90,0.00,,,0.23,weatherlink.com 1.10,2013-04-07 05:21:00,
2013-04-07 00:51:00,39.5,37.0,29.63,WNW,285,12.0,18.0,90,0.00,,,0.23,weatherlink.com 1.10,2013-04-07 05:51:00,
2013-04-07 03:03:00,37.2,33.0,29.69,WNW,290,7.0,23.0,85,0.00,,,0.23,weatherlink.com 1.10,2013-04-07 08:03:00,
2013-04-07 03:39:00,37.1,32.0,29.70,NW,317,11.0,21.0,83,0.00,,,0.23,weatherlink.com 1.10,2013-04-07 08:39:00,
2013-04-07 03:51:00,37.0,33.0,29.70,NNW,338,7.0,16.0,84,0.00,,,0.23,weatherlink.com 1.10,2013-04-07 08:51:00,
2013-04-07 04:06:00,36.9,33.0,29.71,NW,325,7.0,17.0,84,0.00,,,0.23,weatherlink.com 1.10,2013-04-07 09:06:00,
2013-04-07 04:21:00,36.9,33.0,29.72,WNW,283,7.0,16.0,84,0.00,,,0.23,weatherlink.com 1.10,2013-04-07 09:21:00,
2013-04-07 04:36:00,37.0,33.0,29.73,NW,306,9.0,14.0,84,0.00,,,0.23,weatherlink.com 1.10,2013-04-07 09:36:00,
2013-04-07 04:51:00,36.9,33.0,29.73,NW,310,11.0,15.0,84,0.00,,,0.23,weatherlink.com 1.10,2013-04-07 09:51:00,
2013-04-07 05:06:00,36.9,33.0,29.74,NNW,328,9.0,12.0,85,0.00,,,0.23,weatherlink.com 1.10,2013-04-07 10:06:00,
2013-04-07 05:21:00,36.9,33.0,29.75,WNW,292,4.0,13.0,85,0.00,,,0.23,weatherlink.com 1.10,2013-04-07 10:21:00,
2013-04-07 05:36:00,36.9,33.0,29.76,West,279,8.0,11.0,86,0.00,,,0.00,weatherlink.com 1.10,2013-04-07 10:36:00,
2013-04-07 05:51:00,36.8,33.0,29.76,NW,321,8.0,12.0,85,0.00,,,0.00,weatherlink.com 1.10,2013-04-07 10:51:00,
2013-04-07 06:21:00,36.7,33.0,29.78,NW,313,8.0,12.0,86,0.00,,,0.00,weatherlink.com 1.10,2013-04-07 11:21:00,
2013-04-07 06:36:00,36.8,33.0,29.79,NW,311,4.0,13.0,86,0.00,,,0.00,weatherlink.com 1.10,2013-04-07 11:36:00,
2013-04-07 06:52:00,36.9,33.0,29.80,WNW,286,6.0,12.0,86,0.00,,,0.00,weatherlink.com 1.10,2013-04-07 11:52:00,
2013-04-07 07:06:00,37.0,33.0,29.82,NW,311,9.0,13.0,86,0.00,,,0.00,weatherlink.com 1.10,2013-04-07 12:06:00,
2013-04-07 07:21:00,37.1,33.0,29.83,WSW,244,3.0,9.0,86,0.00,,,0.00,weatherlink.com 1.10,2013-04-07 12:21:00,
2013-04-07 07:37:00,37.1,33.0,29.83,WSW,238,6.0,14.0,86,0.00,,,0.00,weatherlink.com 1.10,2013-04-07 12:37:00,
2013-04-07 07:52:00,37.1,33.0,29.84,West,273,2.0,10.0,86,0.00,,,0.00,weatherlink.com 1.10,2013-04-07 12:52:00,
2013-04-07 08:07:00,37.3,34.0,29.85,WNW,288,4.0,8.0,86,0.00,,,0.00,weatherlink.com 1.10,2013-04-07 13:07:00,
2013-04-07 08:22:00,37.4,34.0,29.85,NW,314,5.0,9.0,86,0.00,,,0.00,weatherlink.com 1.10,2013-04-07 13:22:00,
2013-04-07 08:37:00,37.6,34.0,29.86,NW,313,6.0,11.0,86,0.00,,,0.00,weatherlink.com 1.10,2013-04-07 13:37:00,
2013-04-07 08:52:00,37.7,34.0,29.86,NW,311,4.0,14.0,85,0.00,,,0.00,weatherlink.com 1.10,2013-04-07 13:52:00,
2013-04-07 09:07:00,37.8,34.0,29.87,NW,316,6.0,14.0,85,0.00,,,0.00,weatherlink.com 1.10,2013-04-07 14:07:00,
2013-04-07 09:22:00,38.0,34.0,29.87,WNW,300,11.0,15.0,85,0.00,,,0.00,weatherlink.com 1.10,2013-04-07 14:22:00,
2013-04-07 09:37:00,38.1,34.0,29.88,NW,320,5.0,15.0,84,0.00,,,0.00,weatherlink.com 1.10,2013-04-07 14:37:00,
2013-04-07 09:52:00,38.3,34.0,29.89,NW,322,10.0,16.0,83,0.00,,,0.00,weatherlink.com 1.10,2013-04-07 14:52:00,
2013-04-07 10:07:00,38.4,33.0,29.89,North,355,10.0,13.0,82,0.00,,,0.00,weatherlink.com 1.10,2013-04-07 15:07:00,
2013-04-07 10:22:00,38.7,34.0,29.90,NW,325,8.0,12.0,82,0.00,,,0.00,weatherlink.com 1.10,2013-04-07 15:22:00,
2013-04-07 10:52:00,39.1,33.0,29.92,NW,318,6.0,13.0,79,0.00,,,0.00,weatherlink.com 1.10,2013-04-07 15:52:00,
2013-04-07 11:07:00,39.1,33.0,29.93,WNW,298,5.0,13.0,79,0.00,,,0.00,weatherlink.com 1.10,2013-04-07 16:07:00,
2013-04-07 11:22:00,39.1,33.0,29.93,NNW,347,5.0,15.0,79,0.00,,,0.00,weatherlink.com 1.10,2013-04-07 16:22:00,
2013-04-07 11:37:00,39.4,33.0,29.93,WNW,283,2.0,12.0,79,0.00,,,0.00,weatherlink.com 1.10,2013-04-07 16:37:00,
2013-04-07 11:52:00,39.3,33.0,29.94,WNW,288,4.0,12.0,79,0.00,,,0.00,weatherlink.com 1.10,2013-04-07 16:52:00,
2013-04-07 12:07:00,39.6,34.0,29.94,NW,318,9.0,11.0,79,0.00,,,0.00,weatherlink.com 1.10,2013-04-07 17:07:00,
2013-04-07 12:22:00,39.7,34.0,29.94,WNW,290,10.0,13.0,79,0.00,,,0.00,weatherlink.com 1.10,2013-04-07 17:22:00,
2013-04-07 12:37:00,40.0,34.0,29.95,NNE,19,9.0,13.0,78,0.00,,,0.00,weatherlink.com 1.10,2013-04-07 17:37:00,
2013-04-07 12:52:00,40.2,34.0,29.95,WSW,246,6.0,12.0,78,0.00,,,0.00,weatherlink.com 1.10,2013-04-07 17:52:00,
2013-04-07 13:07:00,40.9,34.0,29.95,NW,317,7.0,9.0,77,0.00,,,0.00,weatherlink.com 1.10,2013-04-07 18:07:00,
2013-04-07 13:22:00,41.4,35.0,29.96,WNW,288,7.0,8.0,77,0.00,,,0.00,weatherlink.com 1.10,2013-04-07 18:22:00,
2013-04-07 13:37:00,41.0,34.0,29.95,WSW,249,1.0,10.0,77,0.00,,,0.00,weatherlink.com 1.10,2013-04-07 18:37:00,
2013-04-07 13:52:00,41.0,34.0,29.96,North,355,8.0,8.0,77,0.00,,,0.00,weatherlink.com 1.10,2013-04-07 18:52:00,
2013-04-07 14:07:00,41.4,34.0,29.95,NW,318,6.0,10.0,76,0.00,,,0.00,weatherlink.com 1.10,2013-04-07 19:07:00,
2013-04-07 14:22:00,41.5,34.0,29.95,North,351,3.0,9.0,76,0.00,,,0.00,weatherlink.com 1.10,2013-04-07 19:22:00,
2013-04-07 14:37:00,42.8,35.0,29.94,NNW,333,3.0,7.0,75,0.00,,,0.00,weatherlink.com 1.10,2013-04-07 19:37:00,
2013-04-07 14:52:00,42.3,35.0,29.94,WNW,302,3.0,9.0,75,0.00,,,0.00,weatherlink.com 1.10,2013-04-07 19:52:00,
2013-04-07 15:08:00,43.4,36.0,29.94,NW,317,4.0,5.0,74,0.00,,,0.00,weatherlink.com 1.10,2013-04-07 20:08:00,
2013-04-07 15:22:00,43.6,35.0,29.93,North,11,0.0,6.0,72,0.00,,,0.00,weatherlink.com 1.10,2013-04-07 20:22:00,
2013-04-07 15:37:00,44.7,36.0,29.93,ESE,123,1.0,3.0,71,0.00,,,0.00,weatherlink.com 1.10,2013-04-07 20:37:00,
2013-04-07 15:52:00,43.8,35.0,29.93,SSW,211,3.0,8.0,72,0.00,,,0.00,weatherlink.com 1.10,2013-04-07 20:52:00,
2013-04-07 16:23:00,45.0,36.0,29.93,WNW,286,1.0,6.0,70,0.00,,,0.00,weatherlink.com 1.10,2013-04-07 21:23:00,
2013-04-07 16:38:00,46.6,36.0,29.93,SSW,200,3.0,4.0,67,0.00,,,0.00,weatherlink.com 1.10,2013-04-07 21:38:00,
2013-04-07 16:53:00,46.9,36.0,29.92,SSE,162,1.0,2.0,65,0.00,,,0.00,weatherlink.com 1.10,2013-04-07 21:53:00,
2013-04-07 17:08:00,47.0,36.0,29.92,SSE,161,0.0,5.0,65,0.00,,,0.00,weatherlink.com 1.10,2013-04-07 22:08:00,
2013-04-07 17:23:00,47.8,36.0,29.92,SW,218,1.0,5.0,64,0.00,,,0.00,weatherlink.com 1.10,2013-04-07 22:23:00,
2013-04-07 17:38:00,48.5,35.0,29.92,SSE,149,3.0,7.0,61,0.00,,,0.00,weatherlink.com 1.10,2013-04-07 22:38:00,
2013-04-07 17:53:00,47.2,35.0,29.92,SSW,194,2.0,6.0,64,0.00,,,0.00,weatherlink.com 1.10,2013-04-07 22:53:00,
2013-04-07 18:08:00,47.8,36.0,29.92,SSE,148,2.0,8.0,64,0.00,,,0.00,weatherlink.com 1.10,2013-04-07 23:08:00,
2013-04-07 18:23:00,48.1,36.0,29.91,SE,126,2.0,9.0,63,0.00,,,0.00,weatherlink.com 1.10,2013-04-07 23:23:00,
2013-04-07 18:38:00,47.9,36.0,29.92,South,188,0.0,6.0,63,0.00,,,0.00,weatherlink.com 1.10,2013-04-07 23:38:00,
2013-04-07 18:53:00,47.7,36.0,29.92,SE,146,5.0,6.0,63,0.00,,,0.00,weatherlink.com 1.10,2013-04-07 23:53:00,
2013-04-07 19:08:00,47.3,36.0,29.92,East,79,2.0,6.0,65,0.00,,,0.00,weatherlink.com 1.10,2013-04-08 00:08:00,
2013-04-07 19:23:00,46.0,36.0,29.91,East,100,2.0,10.0,68,0.00,,,0.00,weatherlink.com 1.10,2013-04-08 00:23:00,
2013-04-07 19:38:00,45.3,36.0,29.92,East,98,1.0,5.0,71,0.00,,,0.00,weatherlink.com 1.10,2013-04-08 00:38:00,
2013-04-07 19:53:00,44.6,36.0,29.91,ENE,75,3.0,5.0,73,0.00,,,0.00,weatherlink.com 1.10,2013-04-08 00:53:00,
2013-04-07 20:08:00,43.9,36.0,29.92,East,101,6.0,8.0,74,0.00,,,0.00,weatherlink.com 1.10,2013-04-08 01:08:00,
2013-04-07 20:23:00,43.1,36.0,29.91,East,86,7.0,8.0,76,0.00,,,0.00,weatherlink.com 1.10,2013-04-08 01:23:00,
2013-04-07 20:38:00,42.4,36.0,29.91,East,96,6.0,8.0,78,0.00,,,0.00,weatherlink.com 1.10,2013-04-08 01:38:00,
2013-04-07 20:53:00,42.3,36.0,29.92,SSE,155,5.0,9.0,79,0.00,,,0.00,weatherlink.com 1.10,2013-04-08 01:53:00,
2013-04-07 21:08:00,42.0,36.0,29.92,SE,140,5.0,10.0,79,0.00,,,0.00,weatherlink.com 1.10,2013-04-08 02:08:00,
2013-04-07 21:23:00,41.8,36.0,29.91,East,99,6.0,10.0,80,0.00,,,0.00,weatherlink.com 1.10,2013-04-08 02:23:00,
2013-04-07 21:38:00,41.7,36.0,29.91,ESE,119,4.0,8.0,80,0.00,,,0.00,weatherlink.com 1.10,2013-04-08 02:38:00,
2013-04-07 21:53:00,41.6,36.0,29.91,SE,130,5.0,11.0,79,0.00,,,0.00,weatherlink.com 1.10,2013-04-08 02:53:00,
2013-04-07 22:08:00,41.4,35.0,29.91,ESE,117,7.0,10.0,78,0.00,,,0.00,weatherlink.com 1.10,2013-04-08 03:08:00,
2013-04-07 22:23:00,41.1,35.0,29.91,ESE,117,5.0,11.0,78,0.00,,,0.00,weatherlink.com 1.10,2013-04-08 03:23:00,
2013-04-07 22:38:00,40.9,35.0,29.90,SE,137,5.0,11.0,80,0.00,,,0.00,weatherlink.com 1.10,2013-04-08 03:38:00,
2013-04-07 22:53:00,40.7,35.0,29.89,ESE,119,3.0,10.0,80,0.00,,,0.00,weatherlink.com 1.10,2013-04-08 03:53:00,
2013-04-07 23:08:00,40.6,35.0,29.89,SE,127,2.0,11.0,81,0.00,,,0.00,weatherlink.com 1.10,2013-04-08 04:08:00,
2013-04-07 23:23:00,40.5,35.0,29.89,SE,134,6.0,12.0,82,0.00,,,0.00,weatherlink.com 1.10,2013-04-08 04:23:00,
2013-04-07 23:38:00,40.3,35.0,29.88,SE,136,7.0,12.0,82,0.00,,,0.00,weatherlink.com 1.10,2013-04-08 04:38:00,
2013-04-07 23:53:00,40.0,35.0,29.88,SE,128,7.0,12.0,83,0.00,,,0.00,weatherlink.com 1.10,2013-04-08 04:53:00,